Starlink 6369

operational
NORAD ID: 57374 Int'l Des: 2023-099 Owner: SPXS Country: US Constellation: starlink
LEOCIRCULAR

Über Starlink 6369

Beschreibung wird geladen...

Live-Position

3D-Globus wird geladen...

Nächste Überflüge

Höhenverlauf

Altitude vs Time

uPlot chart will show altitude changes over time

Zweizeiliger Elementsatz

1 57374U 23099AY 26037.03087284 .00001169 00000-0 10162-3 0 9999
2 57374 43.0051 35.0078 0001133 268.4053 91.6660 15.02536126141656
Epoch: 6. Feb. 2026 • Age: 14 hours

Aktueller Status

Höhe 571.6 km
Geschwindigkeit 7.58 km/s
Subsatellitenpunkt -42.89°S, 62.94°W
Startdatum 16. Juli 2023
Alter 2.5 years
Typ internet

Technische Details

Klassifizierung Payload
Masse 305.00 kg
Trockenmasse 290.00 kg
Gesamtmasse 305.00 kg
Länge 0.20 m
Durchmesser 2.80 m
Spannweite 9.00 m
Form Box + pan
Hersteller SPXS
Bus-Typ Starlink
Phasenstatus In Orbit
Besitzer/Staat SPXS/US

Große Konstellationen

Loading constellations...